Location: Newark
(42.8481°N, 0.4872°E)
Time: 23:21:31
(UTC+00:00)

Transit 2A Rocket - Pass Details

Date: 03 November 2020
Orbit: 588 x 914 km, 66.7° (Epoch: 29 November)

Event Time Altitude Azimuth Distance (km) Brightness Sun altitude
Rises 15:13:04 0° 337° (NNW) 3,313 8.1 14.3°
Reaches altitude 10° 15:16:27 10° 357° (N) 2,310 7.2 13.8°
Maximum altitude 15:19:52 17° 38° (NE) 1,790 6.4 13.3°
Drops below altitude 10° 15:23:06 10° 79° (E) 2,160 6.8 12.8°
Sets 15:26:05 0° 100° (E) 3,009 7.7 12.4°
